Location: Makanda
(37.6176°N, 89.2090°W)
Time: 04:35:27
(UTC+00:00)

Cosmos 2219 Rocket - Pass Details

Date: 23 September 2019
Orbit: 829 x 845 km, 71.0° (Epoch: 22 October)

Event Time Altitude Azimuth Distance (km) Brightness Sun altitude
Rises 00:18:35 0° 339° (NNW) 3,379 5.7 -5.7°
Reaches altitude 10° 00:21:02 10° 341° (NNW) 2,443 4.9 -6.2°
Maximum altitude 00:26:38 76° 67° (ENE) 860 2.2 -7.3°
Drops below altitude 10° 00:32:13 10° 153° (SSE) 2,437 4.3 -8.4°
Sets 00:34:39 0° 155° (SSE) 3,370 5.0 -8.9°
